Torna al catalogo

SHIYAN 32-02

AttivoScienzaVLEO
NORAD 66378·PAYLOAD·🇨🇳 China

Lanciato Nov 8, 2025 da Yellow Sea Launch Area

Loading…

Prossimi Passaggi (prossime 24 ore)

TLE

AggiornatoSource: Space-Track

Epoca: Sep 14, 2026, 14:33 UTC

1 66378U 25255C   26257.60693038  .00012752  00000-0  30493-3 0  9995
2 66378  52.9927 309.9975 0016595 135.0183 225.2168 15.41744901 47750

Traccia SHIYAN 32-02 in tempo reale con AllMySat

Download on the App Store